Location: Long Geng
(2.6167°N, 114.1333°E)
Time: 00:00:54
(UTC+00:00)

Cosmos 1072 Rocket - Pass Details

Date: 14 May 2021
Orbit: 949 x 1007 km, 82.9° (Epoch: 19 June)

Event Time Altitude Azimuth Distance (km) Brightness Sun altitude
Rises 19:59:36 0° 356° (N) 3,710 7.8 -31.9°
Reaches altitude 10° 20:02:07 10° 356° (N) 2,767 7.1 -31.3°
Enters shadow 20:08:27 86° 283° (WNW) 1,012 4.4 -29.9°
